When you browse on this site, cookies collect data to enhance your experience and personalize the content and advertising you see.
Visit our Privacy Policy to learn more. By continuing to use the site, you agree to this use of cookies and data.
  • In Austria
  • List of Countries
  • For 7 days
  • Water Temperature
  • Satellite Maps
  • Weather Map
  • News
  • Weather Widgets
  • user-avatar
    Login

    Hourly Weather Rop Wiang

    Today, 22 April, Monday

    Time Temperature Precipitation Wind Pressure Humidity
    00:00 +32°C° 0 mm 1 mps 721 mmHg 34%
    01:00 +30°C° 0 mm 0 mps 722 mmHg 34%
    02:00 +29°C° 0 mm 0 mps 721 mmHg 36%
    03:00 +28°C° 0 mm 0 mps 721 mmHg 38%
    04:00 +27°C° 0 mm 0 mps 721 mmHg 40%
    05:00 +28°C° 0 mm 0 mps 721 mmHg 40%
    06:00 +28°C° 0 mm 0 mps 722 mmHg 40%
    07:00 +29°C° 0 mm 0 mps 722 mmHg 42%
    08:00 +32°C° 0 mm 0 mps 723 mmHg 35%
    09:00 +36°C° 0 mm 0 mps 723 mmHg 29%
    10:00 +39°C° 0 mm 0 mps 724 mmHg 23%
    11:00 +43°C° 0 mm 1 mps 723 mmHg 21%
    12:00 +44°C° 0 mm 1 mps 722 mmHg 19%
    13:00 +44°C° 0 mm 1 mps 723 mmHg 20%
    14:00 +44°C° 0 mm 1 mps 722 mmHg 19%
    15:00 +45°C° 0 mm 2 mps 721 mmHg 18%
    16:00 +45°C° 0 mm 2 mps 721 mmHg 17%
    17:00 +42°C° 0 mm 2 mps 721 mmHg 19%
    18:00 +40°C° 0 mm 1 mps 721 mmHg 21%
    19:00 +40°C° 0 mm 2 mps 721 mmHg 20%
    20:00 +39°C° 0 mm 2 mps 721 mmHg 24%
    21:00 +38°C° 0 mm 2 mps 722 mmHg 27%
    22:00 +37°C° 0 mm 2 mps 722 mmHg 30%
    23:00 +35°C° 0.5 mm 2 mps 722 mmHg 37%

    Tomorrow, 23 April, Tuesday

    Time Temperature Precipitation Wind Pressure Humidity
    00:00 +34°C° 0.5 mm 2 mps 723 mmHg 44%
    01:00 +31°C° 0.5 mm 1 mps 723 mmHg 51%
    02:00 +30°C° 0.3 mm 1 mps 723 mmHg 55%
    03:00 +30°C° 0.3 mm 1 mps 723 mmHg 60%
    04:00 +27°C° 0.3 mm 0 mps 723 mmHg 64%
    05:00 +27°C° 0.3 mm 0 mps 723 mmHg 65%
    06:00 +27°C° 0.3 mm 0 mps 723 mmHg 66%
    07:00 +27°C° 0.3 mm 0 mps 724 mmHg 67%
    08:00 +31°C° 0 mm 0 mps 724 mmHg 57%
    09:00 +36°C° 0 mm 1 mps 724 mmHg 47%
    10:00 +40°C° 0 mm 1 mps 725 mmHg 38%
    11:00 +41°C° 0 mm 1 mps 724 mmHg 33%
    12:00 +42°C° 0 mm 1 mps 724 mmHg 29%
    13:00 +43°C° 0 mm 1 mps 723 mmHg 25%
    14:00 +43°C° 0 mm 2 mps 723 mmHg 24%
    15:00 +43°C° 0 mm 2 mps 722 mmHg 23%
    16:00 +43°C° 0 mm 2 mps 721 mmHg 22%
    17:00 +41°C° 0 mm 2 mps 721 mmHg 25%
    18:00 +39°C° 0 mm 1 mps 721 mmHg 29%
    19:00 +36°C° 0 mm 1 mps 722 mmHg 32%
    20:00 +35°C° 0 mm 1 mps 722 mmHg 35%
    21:00 +34°C° 0 mm 1 mps 723 mmHg 37%
    22:00 +33°C° 0 mm 1 mps 724 mmHg 40%
    23:00 +32°C° 0.2 mm 1 mps 724 mmHg 44%

    Day after tomorrow, 24 April, Wednesday

    Time Temperature Precipitation Wind Pressure Humidity
    00:00 +32°C° 0.2 mm 1 mps 724 mmHg 48%
    01:00 +29°C° 0.2 mm 0 mps 724 mmHg 51%
    02:00 +28°C° 0.2 mm 0 mps 724 mmHg 54%
    03:00 +28°C° 0.2 mm 0 mps 723 mmHg 58%
    04:00 +27°C° 0.2 mm 0 mps 723 mmHg 61%
    05:00 +27°C° 0 mm 0 mps 724 mmHg 61%
    06:00 +27°C° 0 mm 0 mps 724 mmHg 61%
    07:00 +28°C° 0 mm 0 mps 724 mmHg 61%
    08:00 +31°C° 0 mm 0 mps 725 mmHg 51%
    09:00 +35°C° 0 mm 0 mps 725 mmHg 41%
    10:00 +39°C° 0 mm 0 mps 726 mmHg 31%
    11:00 +41°C° 0 mm 0 mps 725 mmHg 27%
    12:00 +42°C° 0 mm 0 mps 725 mmHg 23%
    13:00 +47°C° 0 mm 1 mps 724 mmHg 19%
    14:00 +46°C° 0 mm 1 mps 723 mmHg 20%
    15:00 +44°C° 0 mm 1 mps 722 mmHg 21%
    16:00 +43°C° 0 mm 2 mps 721 mmHg 22%
    17:00 +41°C° 0 mm 2 mps 721 mmHg 25%
    18:00 +40°C° 0 mm 1 mps 721 mmHg 27%
    19:00 +37°C° 0 mm 1 mps 721 mmHg 30%
    20:00 +36°C° 0 mm 1 mps 722 mmHg 33%
    21:00 +35°C° 0 mm 1 mps 723 mmHg 36%
    22:00 +34°C° 0 mm 1 mps 723 mmHg 39%
    23:00 +33°C° 0 mm 1 mps 723 mmHg 41%

    25 April, Thursday

    Time Temperature Precipitation Wind Pressure Humidity
    00:00 +33°C° 0 mm 1 mps 723 mmHg 43%
    01:00 +30°C° 0 mm 0 mps 722 mmHg 45%
    02:00 +29°C° 0 mm 0 mps 722 mmHg 47%
    03:00 +29°C° 0 mm 0 mps 722 mmHg 48%
    04:00 +29°C° 0 mm 0 mps 722 mmHg 50%
    05:00 +29°C° 0 mm 0 mps 722 mmHg 50%
    06:00 +29°C° 0 mm 0 mps 723 mmHg 50%
    07:00 +29°C° 0 mm 0 mps 723 mmHg 50%
    08:00 +33°C° 0 mm 0 mps 724 mmHg 42%
    09:00 +37°C° 0 mm 0 mps 724 mmHg 33%
    10:00 +40°C° 0 mm 0 mps 725 mmHg 25%
    11:00 +42°C° 0 mm 0 mps 724 mmHg 22%
    12:00 +44°C° 0 mm 0 mps 724 mmHg 18%
    13:00 +46°C° 0 mm 0 mps 723 mmHg 15%
    14:00 +47°C° 0 mm 1 mps 722 mmHg 16%
    15:00 +46°C° 0 mm 1 mps 721 mmHg 16%
    16:00 +44°C° 0 mm 1 mps 720 mmHg 17%
    17:00 +42°C° 0 mm 1 mps 721 mmHg 20%
    18:00 +40°C° 0 mm 1 mps 721 mmHg 22%
    19:00 +39°C° 0 mm 1 mps 721 mmHg 24%
    20:00 +36°C° 0 mm 1 mps 721 mmHg 26%
    21:00 +35°C° 0 mm 1 mps 722 mmHg 28%
    22:00 +34°C° 0 mm 1 mps 722 mmHg 30%
    23:00 +33°C° 0 mm 1 mps 722 mmHg 33%

    26 April, Friday

    Time Temperature Precipitation Wind Pressure Humidity
    00:00 +33°C° 0 mm 1 mps 722 mmHg 35%
    01:00 +30°C° 0 mm 0 mps 722 mmHg 37%
    02:00 +30°C° 0 mm 0 mps 721 mmHg 38%
    03:00 +29°C° 0 mm 0 mps 721 mmHg 39%
    04:00 +29°C° 0 mm 0 mps 721 mmHg 41%
    05:00 +29°C° 0 mm 0 mps 721 mmHg 41%
    06:00 +29°C° 0 mm 0 mps 722 mmHg 42%
    07:00 +29°C° 0 mm 0 mps 722 mmHg 43%
    08:00 +33°C° 0 mm 0 mps 723 mmHg 36%
    09:00 +39°C° 0 mm 1 mps 723 mmHg 29%
    10:00 +42°C° 0 mm 1 mps 724 mmHg 22%
    11:00 +44°C° 0 mm 1 mps 723 mmHg 20%
    12:00 +46°C° 0 mm 1 mps 722 mmHg 17%
    13:00 +47°C° 0 mm 1 mps 722 mmHg 14%
    14:00 +46°C° 0 mm 1 mps 721 mmHg 15%
    15:00 +44°C° 0 mm 1 mps 721 mmHg 17%
    16:00 +43°C° 0 mm 1 mps 720 mmHg 18%
    17:00 +40°C° 0 mm 3 mps 720 mmHg 25%
    18:00 +38°C° 0 mm 4 mps 720 mmHg 32%
    19:00 +35°C° 0 mm 5 mps 720 mmHg 38%
    20:00 +35°C° 0.1 mm 4 mps 721 mmHg 39%
    21:00 +35°C° 0.1 mm 3 mps 722 mmHg 39%
    22:00 +34°C° 0.1 mm 2 mps 723 mmHg 39%
    23:00 +32°C° 0.1 mm 2 mps 723 mmHg 42%

    27 April, Saturday

    Time Temperature Precipitation Wind Pressure Humidity
    00:00 +32°C° 0.1 mm 1 mps 722 mmHg 44%
    01:00 +31°C° 0.1 mm 1 mps 722 mmHg 47%
    02:00 +28°C° 0.1 mm 0 mps 722 mmHg 49%
    03:00 +28°C° 0.1 mm 0 mps 722 mmHg 51%
    04:00 +27°C° 0.1 mm 0 mps 721 mmHg 53%
    05:00 +27°C° 0 mm 0 mps 722 mmHg 53%
    06:00 +27°C° 0 mm 0 mps 723 mmHg 54%
    07:00 +28°C° 0 mm 0 mps 723 mmHg 54%
    08:00 +33°C° 0 mm 1 mps 723 mmHg 47%
    09:00 +35°C° 0 mm 1 mps 724 mmHg 39%
    10:00 +39°C° 0 mm 1 mps 724 mmHg 32%
    11:00 +41°C° 0 mm 1 mps 723 mmHg 28%
    12:00 +43°C° 0 mm 2 mps 723 mmHg 24%
    13:00 +45°C° 0 mm 2 mps 722 mmHg 20%
    14:00 +43°C° 0 mm 2 mps 721 mmHg 22%
    15:00 +41°C° 0 mm 1 mps 721 mmHg 24%
    16:00 +40°C° 0 mm 1 mps 720 mmHg 27%
    17:00 +37°C° 0.3 mm 1 mps 720 mmHg 33%
    18:00 +34°C° 0.3 mm 1 mps 720 mmHg 39%
    19:00 +32°C° 0.3 mm 1 mps 720 mmHg 45%
    20:00 +32°C° 0 mm 1 mps 721 mmHg 47%
    21:00 +32°C° 0 mm 1 mps 722 mmHg 48%
    22:00 +32°C° 0 mm 1 mps 722 mmHg 50%
    23:00 +31°C° 0 mm 1 mps 722 mmHg 51%
    Show more